Franklin, NC

8:07 PM EDT on July 27, 2017 (GMT -0400)
Franklin

Weather History for K1A5 - January, 2014

Change the Weather History Date:

Tuesday, January 28, 2014

  Actual Average (KTOC) Record (KTOC)
Temperature  
Mean Temperature 22 °F -  
Max Temperature 25 °F 53 °F 55 °F (2017)
Min Temperature 19 °F 31 °F 27 °F (2014)
Degree Days  
Heating Degree Days 42    
Moisture  
Dew Point 12 °F    
Average Humidity 64    
Maximum Humidity 88    
Minimum Humidity 32    
Precipitation  
Precipitation 0.10 in - - ()
Sea Level Pressure  
Sea Level Pressure 30.11 in    
Wind  
Wind Speed 3 mph (WNW)    
Max Wind Speed 8 mph    
Max Gust Speed -    
Visibility 7 miles    
Events Snow    
Averages and records for this station are not official NWS values.
T = Trace of Precipitation, MM = Missing Value Source: NWS Daily Summary

Daily Weather History Graph

Daily Weather History Graph

Search for Another Location

Airport or City:

Trip Planner

Search our weather history database for the weather conditions in past years. The results will help you decide how hot, cold, wet, or windy it might be!

Date:

Astronomy

Jan. 28, 2014 Rise Set
Actual Time 7:35 AM EST 5:58 PM EST
Civil Twilight 7:08 AM EST 6:24 PM EST
Nautical Twilight 6:38 AM EST 6:55 PM EST
Astronomical Twilight 6:08 AM EST 7:25 PM EST
Moon 5:14 AM EST 3:48 PM EST
Length of Visible Light 11h 16m
Length of Day
10h 22m
Waning Crescent, 7% of the Moon is Illuminated
Jan 28
Waning Crescent
Jan 30
New
Feb 6
First Quarter
Feb 14
Full
Feb 22
Last Quarter

Hourly Weather History & Observations

Time (EST) Temp. Windchill Dew Point Humidity Pressure Visibility Wind Dir Wind Speed Gust Speed Precip Events Conditions
12:15 AM 26.4 °F 20.9 °F 0.1 °F 32% 30.08 in 10.0 mi NNW 4.6 mph - N/A   Clear
12:35 AM 26.2 °F 17.8 °F -0.0 °F 32% 30.08 in 10.0 mi WNW 8.1 mph - N/A   Clear
12:55 AM 25.7 °F 21.5 °F -0.0 °F 33% 30.08 in 10.0 mi West 3.5 mph - N/A   Clear
1:15 AM 25.2 °F 16.5 °F 0.3 °F 34% 30.08 in 10.0 mi West 8.1 mph - N/A   Clear
1:35 AM 24.8 °F 16.9 °F 1.2 °F 36% 30.08 in 10.0 mi WSW 6.9 mph - N/A   Clear
1:55 AM 24.8 °F 16.9 °F 0.7 °F 35% 30.09 in 10.0 mi West 6.9 mph - N/A   Clear
2:15 AM 24.8 °F 20.5 °F 1.2 °F 36% 30.09 in 10.0 mi West 3.5 mph - N/A   Clear
2:35 AM 24.6 °F 15.8 °F 1.0 °F 36% 30.10 in 10.0 mi West 8.1 mph - N/A   Scattered Clouds
2:55 AM 24.6 °F - 1.6 °F 37% 30.10 in 10.0 mi Calm Calm - N/A   Mostly Cloudy
3:15 AM 24.4 °F - 2.1 °F 38% 30.09 in 10.0 mi Calm Calm - N/A   Overcast
3:35 AM 24.4 °F 18.6 °F 2.1 °F 38% 30.10 in 10.0 mi NW 4.6 mph - N/A   Overcast
3:55 AM 24.3 °F - 2.5 °F 39% 30.09 in 10.0 mi Calm Calm - N/A   Overcast
4:15 AM 24.3 °F 19.9 °F 2.5 °F 39% 30.09 in 10.0 mi NNW 3.5 mph - N/A   Overcast
4:35 AM 23.9 °F 16.8 °F 3.4 °F 41% 30.09 in 10.0 mi WNW 5.8 mph - N/A   Overcast
4:55 AM 23.7 °F 17.8 °F 2.8 °F 41% 30.09 in 10.0 mi West 4.6 mph - N/A   Overcast
5:15 AM 23.4 °F - 2.7 °F 41% 30.10 in 10.0 mi Calm Calm - N/A   Overcast
5:35 AM 23.5 °F - 3.4 °F 42% 30.11 in 10.0 mi Calm Calm - N/A   Overcast
5:55 AM 23.7 °F - 2.5 °F 40% 30.11 in 10.0 mi Calm Calm - N/A   Overcast
6:15 AM 23.9 °F 18.0 °F 2.8 °F 40% 30.12 in 10.0 mi NNW 4.6 mph - N/A   Overcast
6:35 AM 23.7 °F - 3.2 °F 41% 30.12 in 10.0 mi Calm Calm - N/A   Overcast
6:55 AM 23.9 °F - 3.7 °F 42% 30.12 in 10.0 mi Calm Calm - N/A   Overcast
7:15 AM 23.9 °F 18.0 °F 3.7 °F 42% 30.12 in 10.0 mi NNW 4.6 mph - N/A   Overcast
7:35 AM 23.7 °F - 4.1 °F 43% 30.12 in 10.0 mi Calm Calm - N/A   Overcast
7:55 AM 23.9 °F 19.5 °F 4.3 °F 43% 30.14 in 10.0 mi NNW 3.5 mph - N/A   Overcast
8:15 AM 23.7 °F 17.8 °F 4.6 °F 44% 30.14 in 10.0 mi NW 4.6 mph - N/A   Overcast
8:35 AM 23.7 °F 17.8 °F 4.6 °F 44% 30.15 in 10.0 mi NW 4.6 mph - N/A   Overcast
8:55 AM 23.9 °F 19.5 °F 4.8 °F 44% 30.16 in 10.0 mi WNW 3.5 mph - N/A   Overcast
9:15 AM 23.9 °F - 5.7 °F 46% 30.16 in 10.0 mi Calm Calm - N/A   Overcast
9:35 AM 23.5 °F - 9.1 °F 54% 30.17 in 5.0 mi Calm Calm - N/A Snow Light Snow
9:55 AM 22.5 °F - 13.1 °F 67% 30.17 in 1.5 mi Calm Calm - N/A Snow Light Snow
10:15 AM 22.6 °F - 15.3 °F 73% 30.17 in 2.0 mi Calm Calm - N/A Snow Light Snow
10:35 AM 22.8 °F - 15.8 °F 74% 30.18 in 2.5 mi Calm Calm - N/A Snow Light Snow
10:55 AM 22.8 °F - 17.1 °F 79% 30.18 in 1.2 mi Calm Calm - N/A Snow Light Snow
11:15 AM 23.2 °F - 18.5 °F 82% 30.17 in 1.2 mi Calm Calm - N/A Snow Light Snow
11:35 AM 23.7 °F - 19.0 °F 82% 30.16 in 2.0 mi Calm Calm - N/A Snow Light Snow
11:55 AM 24.3 °F - 18.9 °F 80% 30.16 in 2.5 mi Calm Calm - N/A Snow Light Snow
12:15 PM 24.3 °F - 19.2 °F 81% 30.14 in 1.5 mi Calm Calm - N/A Snow Light Snow
12:35 PM 24.4 °F 20.1 °F 19.6 °F 82% 30.13 in 1.2 mi WNW 3.5 mph - N/A Snow Light Snow
12:55 PM 24.6 °F - 19.6 °F 81% 30.12 in 1.5 mi Calm Calm - 0.01 in Snow Light Snow
1:15 PM 24.8 °F - 20.3 °F 83% 30.11 in 1.0 mi Calm Calm - N/A Snow Light Snow
1:35 PM 24.6 °F - 20.7 °F 85% 30.11 in 1.0 mi Calm Calm - N/A Snow Light Snow
1:55 PM 24.8 °F - 21.2 °F 86% 30.10 in 0.8 mi Calm Calm - 0.01 in Snow Light Snow
2:15 PM 24.8 °F - 21.7 °F 88% 30.09 in 0.5 mi Calm Calm - 0.01 in Snow Snow
2:35 PM 25.3 °F - 22.1 °F 87% 30.09 in 0.8 mi Calm Calm - 0.03 in Snow Light Snow
2:55 PM 25.2 °F - 21.2 °F 85% 30.09 in 0.8 mi Calm Calm - 0.05 in Snow Light Snow
3:15 PM 25.2 °F 20.9 °F 21.2 °F 85% 30.08 in 0.8 mi NW 3.5 mph - N/A Snow Light Snow
3:35 PM 24.8 °F - 21.2 °F 86% 30.08 in 0.8 mi Calm Calm - 0.01 in Snow Light Snow
3:55 PM 25.2 °F - 21.6 °F 86% 30.08 in 1.0 mi Calm Calm - 0.02 in Snow Light Snow
4:15 PM 25.3 °F - 21.7 °F 86% 30.08 in 0.8 mi Calm Calm - 0.01 in Snow Light Snow
4:35 PM 25.5 °F - 21.6 °F 85% 30.07 in 3.0 mi Calm Calm - 0.01 in Snow Light Snow
4:55 PM 25.5 °F 19.9 °F 19.4 °F 78% 30.08 in 5.0 mi NW 4.6 mph - 0.01 in Snow Light Snow
5:15 PM 25.3 °F - 19.0 °F 77% 30.07 in 10.0 mi Calm Calm - N/A   Overcast
5:35 PM 25.2 °F - 19.4 °F 79% 30.07 in 10.0 mi Calm Calm - N/A   Overcast
5:55 PM 24.6 °F 17.7 °F 18.5 °F 78% 30.08 in 7.0 mi WNW 5.8 mph - N/A Snow Light Snow
6:15 PM 23.4 °F 17.4 °F 17.6 °F 79% 30.07 in 10.0 mi West 4.6 mph - N/A Snow Light Snow
6:35 PM 22.8 °F 16.7 °F 16.9 °F 78% 30.08 in 10.0 mi West 4.6 mph - N/A   Overcast
6:55 PM 22.5 °F 14.1 °F 16.5 °F 78% 30.09 in 10.0 mi WSW 6.9 mph - N/A   Overcast
7:15 PM 22.1 °F 17.4 °F 16.5 °F 79% 30.09 in 10.0 mi West 3.5 mph - N/A   Overcast
7:35 PM 22.1 °F 15.9 °F 16.3 °F 79% 30.10 in 10.0 mi West 4.6 mph - N/A   Overcast
7:55 PM 21.9 °F 14.5 °F 16.0 °F 78% 30.11 in 10.0 mi West 5.8 mph - N/A   Overcast
8:15 PM 21.7 °F 17.0 °F 16.2 °F 79% 30.12 in 10.0 mi West 3.5 mph - N/A   Overcast
8:35 PM 21.6 °F - 15.8 °F 78% 30.10 in 10.0 mi Calm Calm - N/A Snow Light Snow
8:55 PM 21.2 °F - 15.4 °F 78% 30.10 in 10.0 mi Calm Calm - N/A   Overcast
9:15 PM 21.2 °F - 16.2 °F 81% 30.10 in 10.0 mi Calm Calm - N/A   Overcast
9:35 PM 21.2 °F - 15.8 °F 80% 30.10 in 7.0 mi Calm Calm - N/A Snow Light Snow
9:55 PM 21.0 °F 16.2 °F 15.1 °F 78% 30.11 in 7.0 mi West 3.5 mph - N/A Snow Light Snow
10:15 PM 21.0 °F 16.2 °F 15.6 °F 80% 30.11 in 7.0 mi West 3.5 mph - N/A Snow Light Snow
10:35 PM 20.5 °F 15.6 °F 15.3 °F 80% 30.11 in 7.0 mi WNW 3.5 mph - N/A Snow Light Snow
10:55 PM 20.3 °F 12.5 °F 14.0 °F 77% 30.11 in 5.0 mi WSW 5.8 mph - N/A Snow Light Snow
11:15 PM 19.8 °F 13.2 °F 13.6 °F 77% 30.12 in 7.0 mi West 4.6 mph - N/A Snow Light Snow
11:35 PM 19.4 °F 12.8 °F 13.5 °F 78% 30.12 in 10.0 mi WNW 4.6 mph - N/A   Overcast
11:55 PM 19.2 °F 11.3 °F 12.9 °F 76% 30.12 in 10.0 mi WNW 5.8 mph - N/A   Overcast